Starlink 35060

operational
NORAD ID: 65693 Int'l Des: 2025-212 Owner: SPXS Country: US Constellation: starlink
NOTLE

About Starlink 35060

Description loading...

Live Position

Loading 3D Globe...

Upcoming Passes

Altitude History

Altitude vs Time

uPlot chart will show altitude changes over time

Two-Line Element Set

1 65693U 25212T 25345.55761213 .00040708 00000-0 10215-2 0 9990
2 65693 53.1592 30.4810 0001073 69.1114 291.0005 15.39643760 13819
Epoch: Dec 11, 2025 • Age: 12 hours

Current Status

Altitude 456.4 km
Velocity 7.64 km/s
Sub-Earth Point -29.05°S, 133.2°E
Launch Date Sep 21, 2025
Age 0.2 years
Type internet

Technical Details

Classification Payload
Mass 575.00 kg
Dry Mass 530.00 kg
Total Mass 575.00 kg
Length 0.30 m
Diameter 4.10 m
Span 29.00 m
Shape Box + pan
Manufacturer SPXS
Bus Type Starlink V2MO
Phase Status In Orbit
Owner/State SPXS/US

Large Constellations

Loading constellations...